Temp
22 21 21 21 21 21 21 21 20 20 19 19 18 18 17 19 18 18 18 18 18 19
22 22 21 21 21 21 21 21 21 20 20 19 19 18 19 19 18 18 18 18 18 19
21 22 22 21 21 21 20 21 21 20 20 20 19 20 21 19 18 18 18 18 18 19
21 21 21 21 21 21 21 21 20 20 20 19 19 20 20 20 19 19 19 18 17 18
23 22 22 22 21 21 21 20 20 20 20 19 19 20 21 20 18 18 19 19 17 18
23 23 22 23 22 21 21 20 19 19 19 19 18 18 19 19 19 18 18 17 17 17
24 23 23 23 22 22 21 21 20 19 20 20 21 22 22 21 19 17 17 16 16 16
24 23 23 22 22 22 22 20 19 18 19 19 19 18 19 18 19 17 17 16 16 16
22 22 21 21 21 20 19 18 17 17 18 17 19 18 18 17 18 17 16 16 15 15
21 20 20 19 18 19 18 18 17 17 17 18 18 17 17 17 17 17 16 16 16 15
19 19 18 18 17 17 17 17 16 17 17 18 17 17 17 16 17 16 16 16 16 15
18 17 16 17 18 18 18 17 17 16 16 16 16 16 16 16 16 16 16 15 15 14
16 16 15 16 17 17 15 15 15 15 15 15 15 15 15 15 15 15 15 14 14 14
16 15 15 16 16 15 14 15 15 14 15 15 15 15 14 13 13 13 13 13 13 12
Height
1541 1542 1543 1545 1546 1547 1549 1550 1549 1547 1549 1549 1548 1547 1546 1545 1546 1547 1548 1548 1547 1548
1537 1539 1540 1542 1543 1544 1545 1546 1547 1546 1545 1545 1545 1544 1544 1544 1546 1545 1545 1546 1545 1546
1533 1535 1537 1538 1539 1540 1541 1542 1543 1542 1543 1542 1542 1541 1541 1542 1543 1542 1543 1545 1543 1544
1531 1532 1533 1534 1536 1537 1537 1538 1538 1538 1539 1539 1539 1538 1538 1539 1539 1539 1539 1540 1541 1541
1530 1530 1531 1530 1532 1534 1535 1535 1535 1536 1536 1536 1536 1536 1535 1536 1537 1537 1537 1537 1537 1538
1528 1528 1530 1530 1527 1528 1531 1533 1533 1532 1535 1534 1534 1533 1533 1533 1533 1533 1533 1534 1535 1535
1523 1525 1525 1526 1527 1527 1526 1526 1527 1528 1529 1526 1523 1522 1523 1526 1529 1530 1531 1531 1532 1533
1520 1520 1521 1523 1523 1521 1520 1520 1520 1518 1526 1524 1522 1525 1522 1522 1521 1524 1527 1530 1530 1530
1514 1515 1515 1516 1516 1517 1515 1515 1512 1518 1520 1521 1515 1521 1519 1518 1519 1520 1521 1525 1525 1526
1514 1514 1515 1514 1511 1512 1511 1510 1512 1512 1514 1512 1510 1514 1515 1516 1515 1515 1517 1519 1522 1523
1513 1513 1513 1512 1511 1510 1509 1509 1508 1508 1507 1505 1505 1507 1506 1509 1512 1511 1512 1514 1516 1518
1514 1514 1513 1511 1509 1508 1506 1504 1502 1501 1500 1499 1498 1498 1499 1502 1504 1506 1510 1511 1513 1515
1517 1516 1515 1512 1508 1505 1502 1499 1497 1495 1494 1493 1493 1493 1493 1494 1494 1497 1503 1506 1509 1511
1518 1517 1516 1512 1507 1503 1500 1498 1495 1492 1490 1489 1489 1489 1488 1487 1483 1488 1490 1496 1502 1505
Wind_Speed
16 16 14 13 9 10 10 8 8 8 4 8 11 12 9 5 3 6 5 5 6 7
18 15 14 14 16 15 14 16 15 12 18 11 12 11 8 2 3 11 7 5 7 7
23 21 17 20 18 15 11 12 14 19 16 14 12 10 7 5 8 10 8 3 12 9
19 19 17 16 22 20 21 21 17 17 18 15 14 11 9 9 11 10 8 11 10 9
20 19 19 22 16 22 22 20 21 22 19 15 16 13 11 10 10 12 9 9 9 7
20 21 22 20 24 18 21 21 20 20 18 13 17 15 15 13 13 13 10 9 11 8
20 19 20 20 21 23 21 21 23 19 19 19 20 18 17 17 15 16 12 13 14 11
15 17 18 20 19 23 23 20 13 14 25 26 20 23 19 18 16 16 14 14 14 13
13 13 15 18 21 18 19 22 25 33 26 27 20 22 21 21 17 16 15 16 15 13
13 12 14 18 18 17 17 19 19 23 29 26 22 25 27 25 24 17 17 16 14 10
6 8 10 11 11 13 14 14 19 26 28 31 37 35 29 26 29 25 20 17 16 16
9 12 12 13 16 17 18 19 21 24 27 29 28 26 25 27 28 25 26 18 18 15
10 9 13 18 19 19 15 17 18 18 18 24 24 23 24 27 32 29 21 17 15 8
10 10 11 19 22 18 13 12 13 13 12 11 15 16 17 22 20 16 20 16 17 11
Wind_Direction
226 235 243 245 250 243 263 283 255 271 260 281 268 274 287 296 76 296 256 265 255 216
229 228 225 231 248 253 247 227 234 240 268 253 262 268 274 202 230 244 241 220 296 220
230 239 226 224 231 247 241 246 235 238 257 265 263 271 278 194 272 265 225 217 247 256
236 236 251 243 224 235 235 243 237 238 254 253 263 267 270 230 238 256 239 211 253 257
237 235 239 252 250 239 247 242 245 244 245 253 260 262 267 249 226 260 242 227 211 238
237 244 244 252 253 243 247 247 251 250 246 251 253 268 266 259 226 244 227 225 239 218
244 245 249 255 251 259 240 248 249 250 245 244 252 258 255 258 245 236 229 217 237 231
252 251 250 250 267 248 246 239 238 312 284 257 248 255 253 247 245 236 216 233 234 239
245 239 245 248 246 257 258 254 227 251 247 257 249 256 250 247 245 242 226 215 236 247
276 287 289 282 289 279 274 268 259 248 246 244 257 266 255 235 237 232 236 226 224 233
320 322 322 324 323 314 310 295 276 263 255 262 279 281 267 243 234 227 222 224 224 228
17 14 1 344 336 327 318 302 282 271 275 279 279 279 263 245 221 223 221 215 214 221
39 10 349 347 341 332 339 336 326 314 298 281 281 280 274 254 226 216 214 220 210 211
36 8 0 18 16 10 2 358 8 359 348 335 311 293 282 213 178 170 173 172 178 172